Regional Weather Roundup
Issued by NWS Sterling, VA

Home | Current Version | Previous Version | Text Only | Print | Product List | Glossary On
Versions: 1 2 3 4 5 6 7 8 9 10 11 12 13 14 15 16 17 18 19 20 21 22 23 24 25 26 27 28 29 30 31 32 33 34 35 36 37 38 39 40 41 42 43 44 45 46 47 48 49
000
ASUS41 KLWX 131310
RWRLWX

REGIONAL WEATHER ROUNDUP
NATIONAL WEATHER SERVICE BALTIMORE MD/WASHINGTON DC
900 AM EDT SUN JUL 13 2014

Note: "FAIR" indicates few or no clouds below 12,000 feet
with no significant weather and/or obstructions to visibility.
 TC=TEMPERATURE CELSIUS

 * =Non NWS site. Station does not report precipitation (e.g. rain,
    snow, etc.), thunder, or fog.

DCZ001-MDZ009-015-VAZ040>042-051-053>054-131400-
WASHINGTON METRO

CITY           SKY/WX    TMP DP  RH WIND       PRES   REMARKS
WASHINGTON NAT PTSUNNY   80  70  71 S12       30.06F
DULLES         PTSUNNY   77  69  76 S13       30.06S
ANDREWS AFB    MOSUNNY   79  72  78 SW13      30.08S
FT BELVOIR     SUNNY     79  71  78 S5        30.07F
QUANTICO       MOSUNNY   78  71  79 SW8       30.07F
COLLEGE PARK*  MOSUNNY   79  72  78 S5        30.06S
LEESBURG*      SUNNY     79  72  78 S8        30.07S
MANASSAS*      SUNNY     75  68  78 SE6       30.06F
GAITHERSBURG*  MOSUNNY   77  70  78 S6        30.10S

$$

MDZ006>007-011-014-131400-
BALTIMORE METRO

CITY           SKY/WX    TMP DP  RH WIND       PRES   REMARKS
BWI AIRPORT    PTSUNNY   78  70  76 S9        30.05F
MD SCIENCE CTR   N/A     79  70  74 MISG      30.06S
MARTIN STATE   PTSUNNY   79  73  83 S8        30.07F
ANNAPOLIS      MOSUNNY   79  72  79 S8        30.06F
FORT MEADE*    SUNNY     79  70  73 SW8       30.08F

$$

MDZ012-015-019>023-131400-
MARYLAND EASTERN SHORE

CITY           SKY/WX    TMP DP  RH WIND       PRES   REMARKS
OCEAN CITY     PTSUNNY   78  72  81 SW7G17    30.12F
SALISBURY      PTSUNNY   79  72  79 S10       30.11F
BAY BRIDGE AP*   N/A     77  72  83 S10       30.07S
EASTON*        MOSUNNY   81  79  94 SW10      30.12S

$$

MDZ017>025-131400-
SOUTHERN MARYLAND

CITY           SKY/WX    TMP DP  RH WIND       PRES   REMARKS
PATUXENT RIVER PTSUNNY   79  72  79 SW10      30.08S
ST INIGOES     PTSUNNY   79  71  76 S8        30.09S
LEONARDTOWN*   MOSUNNY   79  70  73 MISG      30.10F

$$

MDZ003>005-131400-
NORTH CENTRAL MARYLAND

CITY           SKY/WX    TMP DP  RH WIND       PRES   REMARKS
FREDERICK*     SUNNY     79  73  83 S7        30.08R
HAGERSTOWN APT PTSUNNY   77  67  71 S12       30.04F
WESTMINSTER*   MOSUNNY   79  70  73 SW9       30.07S

$$

MDZ501>502-131400-
WESTERN MARYLAND

CITY           SKY/WX    TMP DP  RH WIND       PRES   REMARKS
OAKLAND*       CLOUDY    68  55  64 SW10      30.14S
CUMBERLAND*    CLOUDY    72  64  78 CALM      30.09S

$$

VAZ025>031-131400-
SHENANDOAH VALLEY

CITY           SKY/WX    TMP DP  RH WIND       PRES   REMARKS
WINCHESTER*    MOSUNNY   79  66  65 SW8       30.05F
STAUNTON*      SUNNY     77  64  62 S6        30.13S

$$

WVZ021-048>050-054>055-131400-
EASTERN WEST VIRGINIA PANHANDLE

CITY           SKY/WX    TMP DP  RH WIND       PRES   REMARKS
MARTINSBURG    MOSUNNY   81  66  60 S8        30.04F
PETERSBURG*    PTSUNNY   73  61  67 CALM      30.08F

$$

VAZ036>039-050-131400-
CENTRAL FOOTHILLS

CITY           SKY/WX    TMP DP  RH WIND       PRES   REMARKS
CHARLOTTESVILL CLOUDY    75  68  78 S8        30.09S
ORANGE*        CLOUDY    73  68  83 S9        30.10S

$$

VAZ055>057-131400-
NORTH AND CENTRAL PIEDMONT

CITY           SKY/WX    TMP DP  RH WIND       PRES   REMARKS
FREDERICKSBRG* MOSUNNY   79  73  82 S10       30.07S
STAFFORD*      PTSUNNY   77  76  96 SW8       30.11F

$$

NCZ024-NYZ072-PAZ021-071-VAZ022-071-131400-
OTHER REGIONAL OBSERVATIONS

CITY           SKY/WX    TMP DP  RH WIND       PRES   REMARKS
NEW YORK CITY  CLOUDY    75  66  73 W6        30.11S
PHILADELPHIA   LGT RAIN  74  68  81 S6        30.08S
PITTSBURGH     CLOUDY    78  64  61 SW10      29.99S
ROANOKE        CLOUDY    72  65  78 SW6       30.16S
RICHMOND       PTSUNNY   81  71  71 S10       30.11S
RALEIGH        MOSUNNY   79  71  76 SW6       30.15S

$$

ANZ530>537-131400-
MARINE OBSERVATIONS

STATION/POSITION TIME  TEMP    WIND        PRES
                       AIR SEA DIR/SP/G
                 (UTC) (F)     (DEG/KT/KT) (MB)
THOMAS PT LIGHT  1300   76 78  180/ 16/ 18 1018.4F
BALT KEY BRIDGE  1300   80     180/  9/ 11 1017.5F
COVE POINT       1300   78     210/ 13/ 15 1018.4F
LEWISETTA        1300   78 81  220/ 12/ 15 1018.8F
SOLOMONS ISLAND  1300      81                N/A
PINEY POINT      1300          230/  7/  8   N/A

$$



USA.gov is the U.S. government's official web portal to all federal, state and local government web resources and services.